Sault, France

11:19 AM CET on December 04, 2016 (GMT +0100)
D150 | | Change Station

Elev 1374 ft 44.03 °N, 5.20 °E | Updated 6 minutes ago

50.4 °F
Feels Like 50.4 °F
N
0.6
Wind Variable Wind from SW
Gusts 2.5 mph

Today
High -- | Low -- °F
--% Chance of Precip.
Yesterday
High -- | Low -- °F
Precip. -- in
Pressure 30.18 in
Visibility 4.3 miles
Clouds
Dew Point 38 °F
Humidity 63%
Rainfall 0.00 in
Snow Depth Not available.
7:56 AM 5:00 PM
Waxing Crescent, 21% visible
METAR LFMO 041000Z AUTO 26003KT 230V290 7000 NSC 07/05 Q1022 NOSIG
Pressure 30.18 in
Visibility 4.3 miles
Clouds
Dew Point 38 °F
Humidity 63%
Rainfall 0.00 in
Snow Depth Not available.
7:56 AM 5:00 PM
Waxing Crescent, 21% visible
METAR LFMO 041000Z AUTO 26003KT 230V290 7000 NSC 07/05 Q1022 NOSIG

10-Day Weather Forecast

×

Almanac

Astronomy

Dec. 04, 2016 Rise Set
Actual Time
Civil Twilight
Nautical Twilight
Astronomical Twilight
Moon
Length of Visible Light
Length of Day
Tomorrow will be .
, % of the Moon is Illuminated

Today's Extremes

Country Highs Country Lows

Community

WunderPhotos

Upload Photos

1,955,591 photos uploaded!

WunderBlog® & News

Nearby

Air Quality

  Air Quality AQ Index Pollutant
Not available.

Snow Depth

Station Depth Elevation

Earthquake Activity

City Distance Mag. Time & Date
Minimum magnitude displayed is 2.5.

Coastal Water Temperatures

Place Temperature

Stations

Nearby Weather Stations

Station Location Temp. Windchill Dew Point Humidity Wind Precip. Elev Updated Type